LDZALDSP

Guest
Details From LDZA - Zagreb
To LDSP - SPLIT
Flight Number -
Tags generated
Created
Modified
Stats Distance 133 nm / 246 km
Max Altitude 11,700 ft / 3,566 m
Waypoints 3
Social Downloads 0
Likes 0
Share VATSIM

Download

Looking for another format? Having issues loading an existing format? Contact us
Advertisement - Login to hide

Notes

Basic altitude profile: - Ascent Rate: 2500ft/min - Ascent Speed: 250kts - Cruise Altitude: 35000ft - Cruise Speed: 420kts - Descent Rate: 1500ft/min - Descent Speed: 250kts Options: - Use NATs: no - Use PACOTS: no - Use low airways: yes - Use high airways: no

Route

LDZA SONIK LDSP

ID Type Via Altitude Latitude Longitude Leg Dist Tot Dist Heading (true) Name
O LDZA APT - 0 ft / 0 m 45.74189˚ 16.06720˚ - 0 nm - Zagreb
SONIK FIX - 11,700 ft / 3,566 m 44.44833˚ 16.14333˚ 77 nm 77 nm 178° / 178° -
O LDSP APT - 0 ft / 0 m 43.53903˚ 16.29811˚ 55 nm 132 nm 173° / 173° SPLIT

Altitude Profile

Advertisement - Login to hide

LDZA

Details ICAO LDZA (ZAG)
Name Zagreb
Region Croatia
Timezone Europe/Zagreb (UTC+2.0)
Stats Elevation 353 ft / 108 m (AMSL)
Location 45.741890° 16.067200°
Runways 1
Magnetic Variation 4.007° E

METAR

LDZA 212030Z 03005KT 350V050 CAVOK 18/11 Q1014 NOSIG

Decode

TAF

TAF LDZA 211725Z 2118/2218 08005KT CAVOK TX24/2213Z TN13/2204Z PROB40 TEMPO 2211/2217 20015G25KT TSRA FEW030CB BKN040

Decode

Departure Runways

ID Width Length Bearing (true) Bearing (mag) Surface Threshold Offset Overrun Length
05 148 ft / 45 m 10,659 ft / 3,249 m 46.69° 42.68° Asphalt 0 ft / 0 m 195 ft / 59 m
23 148 ft / 45 m 10,659 ft / 3,249 m 226.71° 222.70° Asphalt 0 ft / 0 m 195 ft / 59 m

LDSP

Details ICAO LDSP (SPU)
Name SPLIT
Region Croatia
Timezone Europe/Zagreb (UTC+2.0)
Stats Elevation 79 ft / 24 m (AMSL)
Location 43.539026° 16.298112°
Runways 1
Magnetic Variation 3.884° E

METAR

LDSP 212030Z 32003KT CAVOK 20/15 Q1012 NOSIG

Decode

TAF

TAF LDSP 211725Z 2118/2218 23008KT 9999 FEW040 TX26/2212Z TN20/2203Z BECMG 2118/2120 VRB02KT PROB30 TEMPO 2204/2210 -TSRA FEW030CB BKN035 TEMPO 2204/2208 11010KT TEMPO 2212/2218 23008KT

Decode

Destination Runways

ID Width Length Bearing (true) Bearing (mag) Surface Threshold Offset Overrun Length
05 148 ft / 45 m 8,357 ft / 2,547 m 52.48° 48.60° Asphalt 0 ft / 0 m 76 ft / 23 m
23 148 ft / 45 m 8,357 ft / 2,547 m 232.50° 228.62° Asphalt 525 ft / 160 m 820 ft / 250 m

Approach Navaids

Runway Type Ident Frequency Range Bearing (true) Bearing (mag) Slope Elevation
05 Localiser IST 110.50 MHz 25 nm / 46 km 52.57° 48.69° - 69 ft / 21 m (AMSL)
05 Glidescope IST 110.50 MHz 25 nm / 46 km 52.57° 48.69° 3.00° 52 ft / 16 m (AMSL)

Popular Alternatives